McAlester, OK

5:08 AM CST on December 16, 2019 (GMT -0600)
McAlester Regional

Weather History for KMLC - September, 2019

Change the Weather History Date:

Friday, September 6, 2019

  Actual Average Record
Temperature  
Mean Temperature 81 °F -  
Max Temperature 96 °F 89 °F 101 °F (1990)
Min Temperature 66 °F 66 °F 48 °F (1974)
Cooling Degree Days 16    
Growing Degree Days 31 (Base 50)    
Moisture  
Dew Point 68 °F    
Average Humidity 70    
Maximum Humidity 93    
Minimum Humidity 37    
Precipitation  
Precipitation 0.00 in - - ()
Sea Level Pressure  
Sea Level Pressure 30.01 in    
Wind  
Wind Speed 2 mph (South)    
Max Wind Speed 9 mph    
Max Gust Speed -    
Visibility 9 miles    
Events      
Averages and records for this station are not official NWS values.
T = Trace of Precipitation, MM = Missing Value Source: NWS Daily Summary

Daily Weather History Graph

Daily Weather History Graph

Search for Another Location

Airport or City:

Astronomy

Sep. 06, 2019 Rise Set
Actual Time 6:59 AM CDT 7:43 PM CDT
Civil Twilight 6:33 AM CDT 8:08 PM CDT
Nautical Twilight 6:03 AM CDT 8:38 PM CDT
Astronomical Twilight 5:32 AM CDT 9:09 PM CDT
Moon 2:50 PM CDT (9/6) 12:17 AM CDT (9/6)
Length of Visible Light 13h 34m
Length of Day
12h 43m
First Quarter, 56% of the Moon is Illuminated
Sep 6
First Quarter
Sep 13
Full
Sep 21
Last Quarter
Sep 28
New
Oct 5
First Quarter

Hourly Weather History & Observations

Time (CDT) Temp. Heat Index Dew Point Humidity Pressure Visibility Wind Dir Wind Speed Gust Speed Precip Events Conditions
12:53 AM 70.0 °F - 66.0 °F 87% 30.02 in 10.0 mi ESE 3.5 mph - N/A   Mostly Cloudy
1:53 AM 72.0 °F - 66.9 °F 84% 30.02 in 10.0 mi SE 3.5 mph - N/A   Scattered Clouds
2:53 AM 71.1 °F - 66.9 °F 87% 30.01 in 10.0 mi Calm Calm - N/A   Partly Cloudy
3:53 AM 70.0 °F - 66.9 °F 90% 30.01 in 9.0 mi Calm Calm - N/A   Partly Cloudy
4:53 AM 66.9 °F - 64.9 °F 93% 30.01 in 7.0 mi Calm Calm - N/A   Clear
5:53 AM 66.9 °F - 64.9 °F 93% 30.02 in 6.0 mi Calm Calm - N/A   Scattered Clouds
6:53 AM 66.0 °F - 64.0 °F 93% 30.04 in 6.0 mi Calm Calm - N/A   Clear
7:53 AM 69.1 °F - 66.9 °F 93% 30.05 in 5.0 mi Calm Calm - N/A   Clear
8:53 AM 78.1 °F - 69.1 °F 74% 30.06 in 10.0 mi Calm Calm - N/A   Clear
9:53 AM 84.0 °F 87.8 °F 69.1 °F 61% 30.07 in 10.0 mi Calm Calm - N/A   Clear
10:53 AM 88.0 °F 92.1 °F 69.1 °F 53% 30.07 in 10.0 mi SSW 5.8 mph - N/A   Clear
11:53 AM 91.0 °F 95.6 °F 69.1 °F 48% 30.06 in 10.0 mi SSW 9.2 mph - N/A   Clear
12:53 PM 93.0 °F 95.9 °F 66.0 °F 41% 30.04 in 10.0 mi WSW 9.2 mph - N/A   Clear
1:53 PM 93.9 °F 97.0 °F 66.0 °F 40% 30.02 in 10.0 mi South 5.8 mph - N/A   Clear
2:53 PM 95.0 °F 99.0 °F 66.9 °F 40% 30.00 in 10.0 mi South 5.8 mph - N/A   Clear
3:53 PM 95.0 °F 97.9 °F 66.0 °F 38% 29.98 in 10.0 mi South 5.8 mph - N/A   Clear
4:53 PM 96.1 °F 99.3 °F 66.0 °F 37% 29.97 in 10.0 mi SSW 6.9 mph - N/A   Clear
5:53 PM 93.9 °F 98.6 °F 68.0 °F 43% 29.97 in 10.0 mi SSW 4.6 mph - N/A   Clear
6:53 PM 88.0 °F 95.6 °F 73.0 °F 61% 29.98 in 10.0 mi Calm Calm - N/A   Clear
7:53 PM 81.0 °F 86.7 °F 75.0 °F 82% 29.98 in 10.0 mi Calm Calm - N/A   Clear
8:53 PM 77.0 °F - 72.0 °F 84% 29.98 in 10.0 mi Calm Calm - N/A   Clear
9:53 PM 75.0 °F - 71.1 °F 87% 29.99 in 10.0 mi Calm Calm - N/A   Clear
10:53 PM 73.9 °F - 70.0 °F 87% 29.99 in 10.0 mi Calm Calm - N/A   Partly Cloudy
11:53 PM 73.0 °F - 69.1 °F 87% 29.99 in 10.0 mi Calm Calm - N/A   Clear